Location: Newark
(52.3500°N, 175.9667°E)
Time: 12:05:16
(UTC+00:00)

N. Korean satellite - Pass Details

Date: 18 November 2019
Orbit: 455 x 506 km, 97.2° (Epoch: 12 December)

Event Time Altitude Azimuth Distance (km) Brightness Sun altitude
Rises 06:11:48 0° 203° (SSW) 2,563 10.7 -16.7°
Reaches altitude 10° 06:14:18 10° 222° (SW) 1,696 10.1 -17.0°
Maximum altitude 06:16:59 19° 269° (W) 1,239 9.6 -17.4°
Drops below altitude 10° 06:19:43 10° 316° (NW) 1,724 9.8 -17.8°
Sets 06:22:18 0° 335° (NNW) 2,620 10.5 -18.2°
